DW1086 Northport NY US current weather conditions

sailwx.info

Wind from 140

Air temperature 25.0° C
Dewpoint 23.2° C

Last reported at 2019-Jun-25 23:01 UTC.
Time now 2019-Jun-26 00:04 UTC

Location: N 40°55' W 073°20'.
View on Google Maps.

See reports from other nearby stations

  
Tides and Currents Weather Stations Pressure Air Temp Water Temp Dewpoint Dewpoint Depression Visibility Wind Speed Wind Dir Waves Ship Positions
date/time (UTC)wind fromknots sea level pressurealtimeterstation pressurevisibilityair tempwater tempwave heightnotes
2019-Jun-25 23:01 140 25.0
2019-Jun-25 22:56 138 25.6
2019-Jun-25 22:51 146 0 gusting 4 25.6
2019-Jun-25 22:46 329 0 gusting 4 25.6
2019-Jun-25 22:41 327 0 gusting 4 25.6
2019-Jun-25 22:36 327 25.6
2019-Jun-25 22:31 327 0 gusting 4 25.6
2019-Jun-25 22:26 326 0 gusting 2 25.6
2019-Jun-25 22:21 326 25.6
2019-Jun-25 22:16 326 25.6
2019-Jun-25 22:11 326 0 gusting 1 25.6
2019-Jun-25 22:06 325 25.6
2019-Jun-25 22:01 326 25.6
2019-Jun-25 21:56 325 25.6
2019-Jun-25 21:51 325 25.6
2019-Jun-25 21:46 325 25.6
2019-Jun-25 21:41 325 25.0
2019-Jun-25 21:36 325 25.0
2019-Jun-25 21:31 325 25.0
2019-Jun-25 21:26 325 25.0
2019-Jun-25 21:21 324 0 gusting 2 25.0
2019-Jun-25 21:06 323 25.0
2019-Jun-25 21:01 323 25.0
2019-Jun-25 20:56 323 25.0
2019-Jun-25 20:51 323 25.0
2019-Jun-25 20:46 323 24.4
2019-Jun-25 20:41 323 24.4
2019-Jun-25 20:36 323 24.4
2019-Jun-25 20:31 323 24.4
2019-Jun-25 20:26 323 24.4
2019-Jun-25 20:21 323 24.4
2019-Jun-25 20:16 323 24.4
2019-Jun-25 20:11 323 23.9
2019-Jun-25 20:06 323 23.9
2019-Jun-25 20:01 323 23.9
2019-Jun-25 19:56 323 23.9
2019-Jun-25 19:51 322 23.9
2019-Jun-25 19:46 322 23.9
2019-Jun-25 19:41 322 23.9
2019-Jun-25 19:36 322 23.9
2019-Jun-25 19:31 322 23.9
2019-Jun-25 19:26 322 23.9
2019-Jun-25 19:21 321 0 gusting 2 24.4
2019-Jun-25 19:16 323 0 gusting 2 24.4
2019-Jun-25 19:11 303 0 gusting 2 24.4
2019-Jun-25 19:06 252 24.4
2019-Jun-25 19:01 252 24.4
2019-Jun-25 18:56 252 24.4
2019-Jun-25 18:51 252 24.4
2019-Jun-25 18:46 252 24.4
2019-Jun-25 18:41 252 24.4
2019-Jun-25 18:36 252 24.4
2019-Jun-25 18:31 252 24.4
2019-Jun-25 18:26 253 24.4
2019-Jun-25 18:21 256 24.4
2019-Jun-25 18:16 256 23.9
2019-Jun-25 18:11 256 23.9
2019-Jun-25 18:06 256 23.9
2019-Jun-25 18:01 256 23.9
2019-Jun-25 17:56 255 0 gusting 2 23.9
2019-Jun-25 17:51 169 23.3
2019-Jun-25 17:46 169 23.3
2019-Jun-25 17:41 169 23.3
2019-Jun-25 17:36 175 23.3
2019-Jun-25 17:31 250 22.8
2019-Jun-25 17:26 260 22.8
2019-Jun-25 17:21 304 22.8
2019-Jun-25 17:16 309 22.8
2019-Jun-25 17:11 117 0 gusting 4 22.8
2019-Jun-25 17:06 257 22.2
2019-Jun-25 17:01 261 22.2
2019-Jun-25 16:56 264 22.2
2019-Jun-25 16:51 264 22.2
2019-Jun-25 16:46 148 0 gusting 4 22.2
2019-Jun-25 16:41 135 21.7
2019-Jun-25 16:36 165 21.7
2019-Jun-25 16:31 135 21.7
2019-Jun-25 16:26 148 21.7
2019-Jun-25 16:21 146 21.7
2019-Jun-25 16:16 183 21.7
2019-Jun-25 16:11 192 21.7
2019-Jun-25 16:06 148 0 gusting 5 21.7
2019-Jun-25 16:01 173 21.7
2019-Jun-25 15:56 195 1 gusting 2 21.7
2019-Jun-25 15:51 140 21.7
2019-Jun-25 15:46 132 21.7
2019-Jun-25 15:41 152 1 gusting 6 21.7
2019-Jun-25 15:36 154 1 gusting 6 21.7
2019-Jun-25 15:31 141 1 gusting 5 22.2
2019-Jun-25 15:26 139 1 gusting 7 22.2
2019-Jun-25 15:21 130 0 gusting 8 22.2
2019-Jun-25 15:16 208 22.2
2019-Jun-25 15:11 209 22.2
2019-Jun-25 15:06 209 22.2
2019-Jun-25 09:01 145 0 gusting 5 21.7
2019-Jun-25 08:56 142 21.7
2019-Jun-25 08:51 141 21.7
2019-Jun-25 08:46 141 21.7
2019-Jun-25 08:41 140 21.7
2019-Jun-25 08:36 129 21.7
2019-Jun-25 08:31 142 21.7
2019-Jun-25 08:26 139 0 gusting 7 21.7
2019-Jun-25 08:21 148 0 gusting 4 21.7
2019-Jun-25 08:16 148 0 gusting 4 21.7
2019-Jun-25 08:11 136 0 gusting 2 21.7
2019-Jun-25 08:06 140 21.7
2019-Jun-25 08:01 140 21.7
2019-Jun-25 07:56 141 21.7
2019-Jun-25 07:51 141 21.7
2019-Jun-25 07:46 142 21.7
2019-Jun-25 07:41 142 21.7
2019-Jun-25 07:36 143 21.7
2019-Jun-25 07:31 142 21.7
2019-Jun-25 07:26 142 0 gusting 4 21.7
2019-Jun-25 07:21 144 0 gusting 2 21.7
2019-Jun-25 07:16 138 21.7
2019-Jun-25 07:11 138 21.7
2019-Jun-25 07:06 138 21.7
2019-Jun-25 07:01 138 21.7
2019-Jun-25 06:56 138 21.7
2019-Jun-25 06:51 138 21.7
2019-Jun-25 06:46 137 21.7
2019-Jun-25 06:41 137 21.7
2019-Jun-25 06:36 136 21.7
2019-Jun-25 06:31 136 21.7
2019-Jun-25 06:26 138 21.7
2019-Jun-25 06:21 139 0 gusting 4 21.7
2019-Jun-25 06:16 147 0 gusting 2 21.7
2019-Jun-25 06:11 148 21.7
2019-Jun-25 06:06 148 0 gusting 6 21.7
2019-Jun-25 06:01 137 21.7
2019-Jun-25 05:56 137 21.7
2019-Jun-25 05:51 137 21.7
2019-Jun-25 05:46 137 21.7
2019-Jun-25 05:41 137 0 gusting 2 21.7
2019-Jun-25 05:36 138 21.7
2019-Jun-25 05:31 213 21.7
2019-Jun-25 05:26 213 21.7
2019-Jun-25 05:21 214 21.7
2019-Jun-24 09:06 241 18.3
2019-Jun-24 09:01 241 18.3
2019-Jun-24 08:56 241 18.3
2019-Jun-24 08:51 241 18.3
2019-Jun-24 08:46 241 18.3
2019-Jun-24 08:41 241 18.9
2019-Jun-24 08:36 241 18.9
2019-Jun-24 08:31 241 18.9
2019-Jun-24 08:26 241 18.9
2019-Jun-24 08:21 241 18.9
2019-Jun-24 08:16 237 18.9
2019-Jun-24 08:11 246 18.9
2019-Jun-24 08:06 246 18.9
2019-Jun-24 08:01 248 19.4
2019-Jun-24 07:56 248 19.4
2019-Jun-24 07:51 238 19.4
2019-Jun-24 07:46 238 19.4
2019-Jun-24 07:41 238 19.4
2019-Jun-24 07:36 238 19.4
2019-Jun-24 07:31 238 19.4
2019-Jun-24 07:26 238 19.4
2019-Jun-24 07:21 238 19.4
2019-Jun-24 07:16 238 19.4
2019-Jun-24 07:11 238 20.0
2019-Jun-24 07:06 238 20.0
2019-Jun-24 07:01 238 20.0
2019-Jun-24 06:56 238 20.0
2019-Jun-24 06:51 238 20.0
2019-Jun-24 06:46 238 20.0
2019-Jun-24 06:41 238 20.0
2019-Jun-24 06:36 238 20.0
2019-Jun-24 06:31 238 20.0
2019-Jun-24 06:26 238 20.0
2019-Jun-24 06:21 238 20.0
2019-Jun-24 06:16 238 20.0
2019-Jun-24 06:11 240 0 gusting 2 20.0
2019-Jun-24 06:06 242 20.0
2019-Jun-24 06:01 242 20.0
2019-Jun-24 05:56 244 0 gusting 4 20.0
2019-Jun-24 05:51 250 0 gusting 2 20.0
2019-Jun-24 05:46 252 0 gusting 2 20.0
2019-Jun-24 05:41 259 20.0
2019-Jun-24 05:36 263 20.0
2019-Jun-24 05:31 263 20.0
2019-Jun-24 05:26 263 20.0
2019-Jun-24 05:21 263 20.6
2019-Jun-24 05:16 263 20.6
2019-Jun-24 05:11 263 20.6
2019-Jun-24 05:06 263 20.6
2019-Jun-24 05:01 263 20.6
2019-Jun-24 04:56 263 20.6
2019-Jun-24 04:51 263 20.6
2019-Jun-24 04:46 263 20.6
2019-Jun-24 04:41 263 20.6
2019-Jun-24 04:36 263 21.1
2019-Jun-24 04:31 263 21.1
2019-Jun-24 04:26 263 21.1
2019-Jun-24 04:21 273 21.1
2019-Jun-24 04:16 270 21.1
2019-Jun-24 04:11 270 21.1
2019-Jun-24 04:06 270 21.1
2019-Jun-24 04:01 270 21.1
2019-Jun-24 03:56 277 21.1
2019-Jun-24 03:51 227 21.1
2019-Jun-24 03:46 227 21.1
2019-Jun-24 03:41 226 21.1
2019-Jun-24 03:36 226 21.1
2019-Jun-24 03:31 226 21.1
2019-Jun-24 03:26 226 0 gusting 5 21.1
2019-Jun-24 03:21 227 0 gusting 2 21.1
2019-Jun-24 03:16 236 21.1
2019-Jun-24 03:11 236 21.1
2019-Jun-24 03:06 236 21.1
2019-Jun-24 03:01 260 21.1
2019-Jun-24 02:56 259 21.1
2019-Jun-24 02:51 231 0 gusting 2 21.1
2019-Jun-24 02:46 237 21.1
2019-Jun-24 02:41 249 21.7
2019-Jun-24 02:36 250 21.7
2019-Jun-24 02:31 250 21.7
2019-Jun-24 02:26 250 21.7
2019-Jun-24 02:16 250 21.7
2019-Jun-24 02:11 250 22.2
2019-Jun-24 02:06 250 22.2
2019-Jun-24 02:01 250 22.2
2019-Jun-24 01:56 250 22.2
2019-Jun-24 01:51 250 22.8
2019-Jun-24 01:46 250 22.8
2019-Jun-24 01:36 250 22.8
2019-Jun-24 01:31 250 23.3
2019-Jun-24 01:26 250 23.3
2019-Jun-24 01:21 250 23.3
2019-Jun-24 01:16 250 23.3
2019-Jun-24 01:11 250 23.9
2019-Jun-24 01:06 250 23.9
2019-Jun-24 01:01 250 23.9
2019-Jun-24 00:56 250 23.9
2019-Jun-24 00:51 250 24.4
2019-Jun-24 00:46 250 24.4
2019-Jun-24 00:41 250 24.4
2019-Jun-24 00:36 250 25.0
2019-Jun-24 00:31 250 25.0
2019-Jun-24 00:26 250 25.6
2019-Jun-24 00:21 250 25.6
2019-Jun-24 00:16 250 26.1
2019-Jun-24 00:11 250 26.1
2019-Jun-24 00:06 250 26.1
2019-Jun-24 00:01 250 26.7